Content
SEND FEEDBACK

Daily
Averages
Monthly
Summary
Greece

ATHENS, GREECE


Home > Europe > Greece
Elevation: 69 feet     Latitude: 37 54N     Longitude: 023 44E

WEATHER
 
SELECT A DAY
Number of Records: 77,120;   Date Range: 4/14/01 - 8/31/14
 
SHARE

PRINT THIS DATA

[ ← Previous Day ]
WEATHER ALMANAC - JANUARY 3, 2013
[ Next Day → ]
[ °C ]   °F
Weather ElementAverageHighLow
Temperature48.2 °F57.2 °F (12:20 pm)37.4 °F (6:50 am)
Dewpoint42.5 °F48.2 °F (10:50 am)35.6 °F (3:20 am)
Humidity81.2 %93 % (12:50 am)67 % (12:20 pm)
Barometer30.39 in30.42 in (8:20 am)30.33 in (12:50 am)
Wind Speed3.5 mph11.5 mph (12:50 pm)
Weather ElementAverage
Visibility5.9 mi
Wind DirectionESE (115.3 °)

Weather ElementTotal
Precipitation---
Heating Degree Days17.7 (Base 65)
Averaged from 47 records on January 3, 2013
WEATHER CONDITIONS BREAKOUT
WIND DIRECTION BREAKOUT
WEATHER BY HOUR - JANUARY 3, 2013
[ °C ]   °F
Local TimeTemperatureDewpointHumidityBarometerVisibilityWind DirectionWind SpeedGust SpeedPrecipitationEventsConditions
12:50 AM42.8 °F41.0 °F93 %30.33 in6.2 miWest (270°)3.5 mphPartly Cloudy
1:20 AM39.2 °F37.4 °F93 %30.33 in6.2 miVariable1.2 mphPartly Cloudy
1:50 AM41.0 °F39.2 °F93 %30.36 in6.2 miVariable1.2 mphPartly Cloudy
2:20 AM39.2 °F37.4 °F93 %30.36 in6.2 miVariable1.2 mphPartly Cloudy
2:50 AM42.8 °F41.0 °F93 %30.36 in4.3 miWNW (290°)3.5 mphPartly Cloudy
3:20 AM39.2 °F35.6 °F87 %30.36 in4.3 miNW (320°)2.3 mphPartly Cloudy
3:50 AM39.2 °F37.4 °F93 %30.36 in4.3 miVariable1.2 mphPartly Cloudy
4:20 AM41.0 °F39.2 °F93 %30.36 in6.2 miWNW (290°)2.3 mphPartly Cloudy
4:50 AM39.2 °F37.4 °F93 %30.36 in6.2 miNW (320°)2.3 mphPartly Cloudy
5:20 AM39.2 °F37.4 °F93 %30.36 in6.2 miVariable1.2 mphPartly Cloudy
5:50 AM41.0 °F39.2 °F93 %30.36 in6.2 miWNW (290°)2.3 mphPartly Cloudy
6:20 AM39.2 °F37.4 °F93 %30.39 in4.3 miCalmPartly Cloudy
6:50 AM37.4 °F35.6 °F93 %30.39 in4.3 miNW (320°)1.2 mphPartly Cloudy
7:20 AM41.0 °F37.4 °F87 %30.39 in5.0 miWNW (290°)1.2 mphPartly Cloudy
7:50 AM42.8 °F39.2 °F87 %30.39 in5.6 miVariable3.5 mphMostly Cloudy
8:20 AM44.6 °F41.0 °F87 %30.42 in5.6 miCalmMostly Cloudy
8:50 AM44.6 °F41.0 °F87 %30.42 in6.2 miWest (260°)1.2 mphMostly Cloudy
9:20 AM48.2 °F44.6 °F87 %30.42 in6.2 miSW (220°)1.2 mphMostly Cloudy
9:50 AM50.0 °F44.6 °F82 %30.42 in6.2 miVariable1.2 mphMostly Cloudy
10:20 AM51.8 °F46.4 °F82 %30.42 in6.2 miVariable1.2 mphMostly Cloudy
10:50 AM51.8 °F48.2 °F88 %30.42 in6.2 miCalmMostly Cloudy
11:20 AM55.4 °F48.2 °F77 %30.42 in6.2 miVariable1.2 mphMostly Cloudy
11:50 AM55.4 °F48.2 °F77 %30.42 in6.2 miNE (40°)9.2 mphScattered Clouds
12:20 PM57.2 °F46.4 °F67 %30.42 in6.2 miNE (40°)10.4 mphMostly Cloudy
12:50 PM57.2 °F46.4 °F67 %30.42 in6.2 miNE (40°)11.5 mphMostly Cloudy
1:20 PM57.2 °F46.4 °F67 %30.39 in6.2 miNE (40°)9.2 mphMostly Cloudy
1:50 PM57.2 °F46.4 °F67 %30.39 in6.2 miNE (40°)9.2 mphMostly Cloudy
2:20 PM57.2 °F46.4 °F67 %30.39 in6.2 miNE (40°)10.4 mphMostly Cloudy
2:50 PM57.2 °F48.2 °F72 %30.39 in6.2 miENE (60°)9.2 mphMostly Cloudy
3:20 PM57.2 °F46.4 °F67 %30.39 in6.2 miEast (80°)6.9 mphMostly Cloudy
3:50 PM57.2 °F48.2 °F72 %30.39 in6.2 miENE (70°)8.1 mphMostly Cloudy
4:20 PM55.4 °F48.2 °F77 %30.39 in6.2 miENE (70°)6.9 mphMostly Cloudy
4:50 PM55.4 °F46.4 °F72 %30.39 in6.2 miEast (90°)3.5 mphMostly Cloudy
5:20 PM53.6 °F46.4 °F77 %30.39 in6.2 miNE (40°)6.9 mphMostly Cloudy
5:50 PM53.6 °F42.8 °F67 %30.39 in6.2 miNNE (30°)2.3 mphMostly Cloudy
6:20 PM53.6 °F42.8 °F67 %30.39 in6.2 miWest (260°)3.5 mphMostly Cloudy
6:50 PM53.6 °F42.8 °F67 %30.39 in6.2 miCalmMostly Cloudy
7:20 PM51.8 °F42.8 °F71 %30.39 in6.2 miCalmMostly Cloudy
7:50 PM51.8 °F42.8 °F71 %30.39 in6.2 miVariable1.2 mphMostly Cloudy
8:20 PM50.0 °F42.8 °F76 %30.39 in6.2 miVariable2.3 mphMostly Cloudy
8:50 PM50.0 °F42.8 °F76 %30.39 in6.2 miWest (280°)2.3 mphMostly Cloudy
9:20 PM50.0 °F42.8 °F76 %30.39 in6.2 miWest (280°)1.2 mphMostly Cloudy
9:50 PM48.2 °F42.8 °F82 %30.39 in6.2 miSW (230°)1.2 mphScattered Clouds
10:20 PM48.2 °F42.8 °F82 %30.39 in6.2 miWSW (250°)3.5 mphScattered Clouds
10:50 PM44.6 °F41.0 °F87 %30.39 in6.2 miWNW (290°)4.6 mphScattered Clouds
11:20 PM42.8 °F41.0 °F93 %30.36 in6.2 miWest (280°)5.8 mphScattered Clouds
11:50 PM41.0 °F37.4 °F87 %30.36 in6.2 miVariable2.3 mphScattered Clouds
Hourly data recorded from LGAV, located miles away from Athens, Greece







STORIES FROM OUR PARTNERS